This is the latest recevied weather packets stored in our database for station/object N8WJW. If no packets are shown the sender has not sent any weather packets the latest 10 day(s).
| Time | Temp. | Humidity | Pressure | Rain* | Wind** | Luminosity | Snow |
|---|---|---|---|---|---|---|---|
| 1777852597 | 13.33° C | 46% | 1013 hPa | 0 mm | - | 11 W/m² | - |
| 1777852294 | 13.33° C | 47% | 1013 hPa | 0 mm | - | 14 W/m² | - |
| 1777851992 | 13.89° C | 47% | 1013.1 hPa | 0 mm | - | 20 W/m² | - |
| 1777851690 | 13.89° C | 46% | 1012.8 hPa | 0 mm | - | 21 W/m² | - |
| 1777851387 | 13.89° C | 46% | 1013.1 hPa | 0 mm | - | 20 W/m² | - |
| 1777851082 | 13.89° C | 47% | 1013 hPa | 0 mm | - | 18 W/m² | - |
| 1777850779 | 13.89° C | 45% | 1013 hPa | 0 mm | - | 24 W/m² | - |
| 1777850477 | 13.89° C | 47% | 1013.1 hPa | 0 mm | - | 28 W/m² | - |
| 1777850175 | 13.89° C | 45% | 1013 hPa | 0 mm | - | 44 W/m² | - |
| 1777849871 | 13.89° C | 45% | 1013.1 hPa | 0 mm | - | 56 W/m² | - |
| 1777849568 | 13.89° C | 46% | 1013.1 hPa | 0 mm | - | 60 W/m² | - |
| 1777849265 | 13.89° C | 46% | 1012.9 hPa | 0 mm | - | 59 W/m² | - |
| 1777848963 | 13.89° C | 46% | 1013.1 hPa | 0 mm | - | 54 W/m² | - |
| 1777848656 | 13.89° C | 47% | 1013 hPa | 0 mm | - | 61 W/m² | - |
| 1777848349 | 13.89° C | 45% | 1013.1 hPa | 0 mm | - | 65 W/m² | - |
| 1777848047 | 13.89° C | 44% | 1013.2 hPa | 0 mm | - | 49 W/m² | - |
| 1777847745 | 13.89° C | 45% | 1013 hPa | 0 mm | - | 44 W/m² | - |
| 1777847440 | 13.89° C | 44% | 1013.3 hPa | 0 mm | - | 54 W/m² | - |
| 1777847138 | 13.89° C | 45% | 1013.2 hPa | 0 mm | - | 64 W/m² | - |
| 1777846836 | 13.89° C | 44% | 1013.3 hPa | 0 mm | - | 69 W/m² | - |
| 1777846534 | 13.89° C | 46% | 1013.2 hPa | 0 mm | - | 79 W/m² | - |
| 1777846231 | 13.89° C | 44% | 1013.5 hPa | 0 mm | - | 83 W/m² | - |
| 1777845927 | 13.89° C | 44% | 1013.3 hPa | 0 mm | - | 79 W/m² | - |
| 1777845624 | 13.89° C | 44% | 1013.3 hPa | 0 mm | - | 95 W/m² | - |
| 1777845321 | 14.44° C | 44% | 1013.4 hPa | 0 mm | - | 102 W/m² | - |
* Rain latest hour (hover to see other rain measurements)
** Current wind speed in m/s (hover to see current wind gust speed)